Year,Month,Day,Hour,Minute,Value (Times are PST for temperature in C)
2009,07,30,00,00,24.30
2009,07,30,00,01,24.30
2009,07,30,00,02,24.30
2009,07,30,00,03,24.30
2009,07,30,00,04,24.30
2009,07,30,00,05,24.30
2009,07,30,00,06,24.30
2009,07,30,00,07,24.20
2009,07,30,00,08,24.20
2009,07,30,00,09,24.20
2009,07,30,00,10,24.10
2009,07,30,00,11,24.10
2009,07,30,00,12,24.10
2009,07,30,00,13,24.00
2009,07,30,00,14,24.00
2009,07,30,00,15,24.00
2009,07,30,00,16,24.00
2009,07,30,00,17,23.90
2009,07,30,00,18,23.90
2009,07,30,00,19,23.90
2009,07,30,00,20,23.90
2009,07,30,00,21,23.90
2009,07,30,00,22,23.90
2009,07,30,00,23,23.90
2009,07,30,00,24,23.90
2009,07,30,00,25,23.90
2009,07,30,00,26,23.90
2009,07,30,00,27,23.80
2009,07,30,00,28,23.80
2009,07,30,00,29,23.80
2009,07,30,00,30,23.80
2009,07,30,00,31,23.80
2009,07,30,00,32,23.70
2009,07,30,00,33,23.70
2009,07,30,00,34,23.70
2009,07,30,00,35,23.70
2009,07,30,00,36,23.70
2009,07,30,00,37,23.60
2009,07,30,00,38,23.60
2009,07,30,00,39,23.60
2009,07,30,00,40,23.60
2009,07,30,00,41,23.60
2009,07,30,00,42,23.70
2009,07,30,00,43,23.70
2009,07,30,00,44,23.70
2009,07,30,00,45,23.80
2009,07,30,00,46,23.80
2009,07,30,00,47,23.80
2009,07,30,00,48,23.80
2009,07,30,00,49,23.80
2009,07,30,00,50,23.80
2009,07,30,00,51,23.80
2009,07,30,00,52,23.80
2009,07,30,00,53,23.80
2009,07,30,00,54,23.80
2009,07,30,00,55,23.80
2009,07,30,00,56,23.80
2009,07,30,00,57,23.80
2009,07,30,00,58,23.90
2009,07,30,00,59,23.90
2009,07,30,01,00,23.90
2009,07,30,01,01,23.90
2009,07,30,01,02,23.80
2009,07,30,01,03,23.80
2009,07,30,01,04,23.80
2009,07,30,01,05,23.70
2009,07,30,01,06,23.60
2009,07,30,01,07,23.60
2009,07,30,01,08,23.50
2009,07,30,01,09,23.50
2009,07,30,01,10,23.40
2009,07,30,01,11,23.40
2009,07,30,01,12,23.40
2009,07,30,01,13,23.30
2009,07,30,01,14,23.30
2009,07,30,01,15,23.30
2009,07,30,01,16,23.30
2009,07,30,01,17,23.30
2009,07,30,01,18,23.30
2009,07,30,01,19,23.30
2009,07,30,01,20,23.30
2009,07,30,01,21,23.30
2009,07,30,01,22,23.30
2009,07,30,01,23,23.30
2009,07,30,01,24,23.20
2009,07,30,01,25,23.20
2009,07,30,01,26,23.20
2009,07,30,01,27,23.20
2009,07,30,01,28,23.20
2009,07,30,01,29,23.20
2009,07,30,01,30,23.20
2009,07,30,01,31,23.20
2009,07,30,01,32,23.20
2009,07,30,01,33,23.20
2009,07,30,01,34,23.20
2009,07,30,01,35,23.20
2009,07,30,01,36,23.20
2009,07,30,01,37,23.20
2009,07,30,01,38,23.20
2009,07,30,01,39,23.20
2009,07,30,01,40,23.20
2009,07,30,01,41,23.10
2009,07,30,01,42,23.10
2009,07,30,01,43,23.10
2009,07,30,01,44,23.10
2009,07,30,01,45,23.10
2009,07,30,01,46,23.10
2009,07,30,01,47,23.00
2009,07,30,01,48,23.10
2009,07,30,01,49,23.10
2009,07,30,01,50,23.10
2009,07,30,01,51,23.10
2009,07,30,01,52,23.00
2009,07,30,01,53,23.00
2009,07,30,01,54,23.00
2009,07,30,01,55,23.00
2009,07,30,01,56,23.00
2009,07,30,01,57,23.00
2009,07,30,01,58,22.90
2009,07,30,01,59,22.90
2009,07,30,02,00,22.90
2009,07,30,02,01,22.90
2009,07,30,02,02,22.80
2009,07,30,02,03,22.80
2009,07,30,02,04,22.80
2009,07,30,02,05,22.80
2009,07,30,02,06,22.80
2009,07,30,02,07,22.80
2009,07,30,02,08,22.80
2009,07,30,02,09,22.80
2009,07,30,02,10,22.70
2009,07,30,02,11,22.70
2009,07,30,02,12,22.70
2009,07,30,02,13,22.70
2009,07,30,02,14,22.70
2009,07,30,02,15,22.70
2009,07,30,02,16,22.70
2009,07,30,02,17,22.80
2009,07,30,02,18,22.80
2009,07,30,02,19,22.80
2009,07,30,02,20,22.90
2009,07,30,02,21,22.90
2009,07,30,02,22,23.00
2009,07,30,02,23,23.10
2009,07,30,02,24,23.10
2009,07,30,02,25,23.10
2009,07,30,02,26,23.10
2009,07,30,02,27,23.10
2009,07,30,02,28,23.10
2009,07,30,02,29,23.20
2009,07,30,02,30,23.20
2009,07,30,02,31,23.10
2009,07,30,02,32,23.10
2009,07,30,02,33,23.10
2009,07,30,02,34,23.10
2009,07,30,02,35,23.10
2009,07,30,02,36,23.10
2009,07,30,02,37,23.00
2009,07,30,02,38,23.00
2009,07,30,02,39,22.90
2009,07,30,02,40,22.90
2009,07,30,02,41,22.80
2009,07,30,02,42,22.80
2009,07,30,02,43,22.80
2009,07,30,02,44,22.70
2009,07,30,02,45,22.70
2009,07,30,02,46,22.70
2009,07,30,02,47,22.70
2009,07,30,02,48,22.60
2009,07,30,02,49,22.60
2009,07,30,02,50,22.60
2009,07,30,02,51,22.60
2009,07,30,02,52,22.60
2009,07,30,02,53,22.60
2009,07,30,02,54,22.50
2009,07,30,02,55,22.50
2009,07,30,02,56,22.50
2009,07,30,02,57,22.40
2009,07,30,02,58,22.40
2009,07,30,02,59,22.40
2009,07,30,03,00,22.40
2009,07,30,03,01,22.40
2009,07,30,03,02,22.30
2009,07,30,03,03,22.30
2009,07,30,03,04,22.30
2009,07,30,03,05,22.30
2009,07,30,03,06,22.20
2009,07,30,03,07,22.20
2009,07,30,03,08,22.20
2009,07,30,03,09,22.10
2009,07,30,03,10,22.10
2009,07,30,03,11,22.10
2009,07,30,03,12,22.00
2009,07,30,03,13,22.00
2009,07,30,03,14,22.00
2009,07,30,03,15,21.90
2009,07,30,03,16,21.90
2009,07,30,03,17,21.90
2009,07,30,03,18,21.90
2009,07,30,03,19,21.90
2009,07,30,03,20,21.90
2009,07,30,03,21,21.90
2009,07,30,03,22,21.90
2009,07,30,03,23,21.90
2009,07,30,03,24,22.00
2009,07,30,03,25,22.00
2009,07,30,03,26,22.00
2009,07,30,03,27,22.00
2009,07,30,03,28,22.00
2009,07,30,03,29,22.00
2009,07,30,03,30,22.00
2009,07,30,03,31,22.00
2009,07,30,03,32,22.10
2009,07,30,03,33,22.00
2009,07,30,03,34,22.00
2009,07,30,03,35,22.00
2009,07,30,03,36,22.00
2009,07,30,03,37,22.00
2009,07,30,03,38,22.00
2009,07,30,03,39,22.00
2009,07,30,03,40,22.10
2009,07,30,03,41,22.10
2009,07,30,03,42,22.10
2009,07,30,03,43,22.20
2009,07,30,03,44,22.20
2009,07,30,03,45,22.20
2009,07,30,03,46,22.20
2009,07,30,03,47,22.20
2009,07,30,03,48,22.20
2009,07,30,03,49,22.20
2009,07,30,03,50,22.20
2009,07,30,03,51,22.20
2009,07,30,03,52,22.20
2009,07,30,03,53,22.20
2009,07,30,03,54,22.20
2009,07,30,03,55,22.20
2009,07,30,03,56,22.20
2009,07,30,03,57,22.20
2009,07,30,03,58,22.10
2009,07,30,03,59,22.10
2009,07,30,04,00,22.10
2009,07,30,04,01,22.10
2009,07,30,04,02,22.10
2009,07,30,04,03,22.10
2009,07,30,04,04,22.10
2009,07,30,04,05,22.10
2009,07,30,04,06,22.10
2009,07,30,04,07,22.10
2009,07,30,04,08,22.10
2009,07,30,04,09,22.10
2009,07,30,04,10,22.10
2009,07,30,04,11,22.10
2009,07,30,04,12,22.10
2009,07,30,04,13,22.00
2009,07,30,04,14,22.00
2009,07,30,04,15,22.00
2009,07,30,04,16,22.00
2009,07,30,04,17,22.00
2009,07,30,04,18,21.90
2009,07,30,04,19,21.90
2009,07,30,04,20,21.90
2009,07,30,04,21,21.80
2009,07,30,04,22,21.80
2009,07,30,04,23,21.80
2009,07,30,04,24,21.70
2009,07,30,04,25,21.70
2009,07,30,04,26,21.70
2009,07,30,04,27,21.60
2009,07,30,04,28,21.60
2009,07,30,04,29,21.60
2009,07,30,04,30,21.60
2009,07,30,04,31,21.60
2009,07,30,04,32,21.60
2009,07,30,04,33,21.60
2009,07,30,04,34,21.60
2009,07,30,04,35,21.60
2009,07,30,04,36,21.50
2009,07,30,04,37,21.50
2009,07,30,04,38,21.50
2009,07,30,04,39,21.50
2009,07,30,04,40,21.60
2009,07,30,04,41,21.60
2009,07,30,04,42,21.60
2009,07,30,04,43,21.60
2009,07,30,04,44,21.60
2009,07,30,04,45,21.60
2009,07,30,04,46,21.60
2009,07,30,04,47,21.60
2009,07,30,04,48,21.60
2009,07,30,04,49,21.60
2009,07,30,04,50,21.50
2009,07,30,04,51,21.50
2009,07,30,04,52,21.50
2009,07,30,04,53,21.50
2009,07,30,04,54,21.50
2009,07,30,04,55,21.50
2009,07,30,04,56,21.50
2009,07,30,04,57,21.50
2009,07,30,04,58,21.50
2009,07,30,04,59,21.50
2009,07,30,05,00,21.50
2009,07,30,05,01,21.50
2009,07,30,05,02,21.50
2009,07,30,05,03,21.60
2009,07,30,05,04,21.50
2009,07,30,05,05,21.60
2009,07,30,05,06,21.50
2009,07,30,05,07,21.50
2009,07,30,05,08,21.50
2009,07,30,05,09,21.40
2009,07,30,05,10,21.40
2009,07,30,05,11,21.40
2009,07,30,05,12,21.40
2009,07,30,05,13,21.40
2009,07,30,05,14,21.40
2009,07,30,05,15,21.40
2009,07,30,05,16,21.30
2009,07,30,05,17,21.30
2009,07,30,05,18,21.30
2009,07,30,05,19,21.30
2009,07,30,05,20,21.30
2009,07,30,05,21,21.30
2009,07,30,05,22,21.30
2009,07,30,05,23,21.20
2009,07,30,05,24,21.20
2009,07,30,05,25,21.20
2009,07,30,05,26,21.20
2009,07,30,05,27,21.20
2009,07,30,05,28,21.20
2009,07,30,05,29,21.20
2009,07,30,05,30,21.20
2009,07,30,05,31,21.20
2009,07,30,05,32,21.20
2009,07,30,05,33,21.20
2009,07,30,05,34,21.20
2009,07,30,05,35,21.30
2009,07,30,05,36,21.20
2009,07,30,05,37,21.20
2009,07,30,05,38,21.20
2009,07,30,05,39,21.20
2009,07,30,05,40,21.20
2009,07,30,05,41,21.20
2009,07,30,05,42,21.20
2009,07,30,05,43,21.20
2009,07,30,05,44,21.20
2009,07,30,05,45,21.20
2009,07,30,05,46,21.20
2009,07,30,05,47,21.20
2009,07,30,05,48,21.20
2009,07,30,05,49,21.20
2009,07,30,05,50,21.20
2009,07,30,05,51,21.20
2009,07,30,05,52,21.20
2009,07,30,05,53,21.10
2009,07,30,05,54,21.10
2009,07,30,05,55,21.10
2009,07,30,05,56,21.10
2009,07,30,05,57,21.10
2009,07,30,05,58,21.10
2009,07,30,05,59,21.10
2009,07,30,06,00,21.00
2009,07,30,06,01,21.00
2009,07,30,06,02,21.00
2009,07,30,06,03,21.00
2009,07,30,06,04,21.00
2009,07,30,06,05,20.90
2009,07,30,06,06,20.90
2009,07,30,06,07,20.90
2009,07,30,06,08,21.00
2009,07,30,06,09,21.00
2009,07,30,06,10,21.00
2009,07,30,06,11,21.00
2009,07,30,06,12,21.00
2009,07,30,06,13,21.00
2009,07,30,06,14,21.00
2009,07,30,06,15,21.00
2009,07,30,06,16,21.00
2009,07,30,06,17,21.00
2009,07,30,06,18,21.00
2009,07,30,06,19,21.00
2009,07,30,06,20,21.00
2009,07,30,06,21,21.00
2009,07,30,06,22,21.00
2009,07,30,06,23,21.00
2009,07,30,06,24,21.00
2009,07,30,06,25,21.00
2009,07,30,06,26,21.00
2009,07,30,06,27,21.00
2009,07,30,06,28,21.00
2009,07,30,06,29,21.00
2009,07,30,06,30,21.00
2009,07,30,06,31,21.00
2009,07,30,06,32,21.00
2009,07,30,06,33,21.00
2009,07,30,06,34,21.00
2009,07,30,06,35,21.00
2009,07,30,06,36,21.00
2009,07,30,06,37,21.00
2009,07,30,06,38,21.00
2009,07,30,06,39,21.00
2009,07,30,06,40,21.00
2009,07,30,06,41,21.00
2009,07,30,06,42,21.00
2009,07,30,06,43,21.10
2009,07,30,06,44,21.10
2009,07,30,06,45,21.10
2009,07,30,06,46,21.20
2009,07,30,06,47,21.20
2009,07,30,06,48,21.20
2009,07,30,06,49,21.30
2009,07,30,06,50,21.30
2009,07,30,06,51,21.30
2009,07,30,06,52,21.40
2009,07,30,06,53,21.40
2009,07,30,06,54,21.40
2009,07,30,06,55,21.50
2009,07,30,06,56,21.50
2009,07,30,06,57,21.60
2009,07,30,06,58,21.60
2009,07,30,06,59,21.60
2009,07,30,07,00,21.70
2009,07,30,07,01,21.70
2009,07,30,07,02,21.80
2009,07,30,07,03,21.80
2009,07,30,07,04,21.80
2009,07,30,07,05,21.80
2009,07,30,07,06,21.90
2009,07,30,07,07,22.00
2009,07,30,07,08,22.00
2009,07,30,07,09,22.10
2009,07,30,07,10,22.10
2009,07,30,07,11,22.20
2009,07,30,07,12,22.20
2009,07,30,07,13,22.30
2009,07,30,07,14,22.30
2009,07,30,07,15,22.30
2009,07,30,07,16,22.30
2009,07,30,07,17,22.40
2009,07,30,07,18,22.50
2009,07,30,07,19,22.50
2009,07,30,07,20,22.60
2009,07,30,07,21,22.60
2009,07,30,07,22,22.70
2009,07,30,07,23,22.80
2009,07,30,07,24,22.80
2009,07,30,07,25,22.90
2009,07,30,07,26,23.00
2009,07,30,07,27,23.00
2009,07,30,07,28,23.10
2009,07,30,07,29,23.20
2009,07,30,07,30,23.30
2009,07,30,07,31,23.30
2009,07,30,07,32,23.40
2009,07,30,07,33,23.50
2009,07,30,07,34,23.60
2009,07,30,07,35,23.70
2009,07,30,07,36,23.70
2009,07,30,07,37,23.80
2009,07,30,07,38,23.80
2009,07,30,07,39,23.90
2009,07,30,07,40,24.00
2009,07,30,07,41,24.20
2009,07,30,07,42,24.30
2009,07,30,07,43,24.40
2009,07,30,07,44,24.50
2009,07,30,07,45,24.50
2009,07,30,07,46,24.60
2009,07,30,07,47,24.60
2009,07,30,07,48,24.70
2009,07,30,07,49,24.70
2009,07,30,07,50,24.70
2009,07,30,07,51,24.80
2009,07,30,07,52,24.80
2009,07,30,07,53,24.90
2009,07,30,07,54,24.90
2009,07,30,07,55,25.00
2009,07,30,07,56,25.00
2009,07,30,07,57,25.00
2009,07,30,07,58,25.00
2009,07,30,07,59,25.00
2009,07,30,08,00,25.00
2009,07,30,08,01,25.00
2009,07,30,08,02,25.10
2009,07,30,08,03,25.10
2009,07,30,08,04,25.20
2009,07,30,08,05,25.30
2009,07,30,08,06,25.30
2009,07,30,08,07,25.30
2009,07,30,08,08,25.30
2009,07,30,08,09,25.40
2009,07,30,08,10,25.40
2009,07,30,08,11,25.40
2009,07,30,08,12,25.40
2009,07,30,08,13,25.40
2009,07,30,08,14,25.40
2009,07,30,08,15,25.40
2009,07,30,08,16,25.30
2009,07,30,08,17,25.20
2009,07,30,08,18,25.10
2009,07,30,08,19,25.10
2009,07,30,08,20,25.10
2009,07,30,08,21,25.00
2009,07,30,08,22,25.00
2009,07,30,08,23,25.00
2009,07,30,08,24,25.00
2009,07,30,08,25,25.10
2009,07,30,08,26,25.20
2009,07,30,08,27,25.30
2009,07,30,08,28,25.40
2009,07,30,08,29,25.50
2009,07,30,08,30,25.60
2009,07,30,08,31,25.70
2009,07,30,08,32,25.90
2009,07,30,08,33,25.90
2009,07,30,08,34,26.10
2009,07,30,08,35,26.10
2009,07,30,08,36,26.20
2009,07,30,08,37,26.20
2009,07,30,08,38,26.20
2009,07,30,08,39,26.30
2009,07,30,08,40,26.40
2009,07,30,08,41,26.40
2009,07,30,08,42,26.50
2009,07,30,08,43,26.60
2009,07,30,08,44,26.70
2009,07,30,08,45,26.80
2009,07,30,08,46,26.80
2009,07,30,08,47,27.00
2009,07,30,08,48,27.00
2009,07,30,08,49,27.10
2009,07,30,08,50,27.00
2009,07,30,08,51,26.90
2009,07,30,08,52,26.80
2009,07,30,08,53,26.70
2009,07,30,08,54,26.60
2009,07,30,08,55,26.60
2009,07,30,08,56,26.60
2009,07,30,08,57,26.70
2009,07,30,08,58,26.80
2009,07,30,08,59,26.80
2009,07,30,09,00,26.70
2009,07,30,09,01,26.60
2009,07,30,09,02,26.60
2009,07,30,09,03,26.50
2009,07,30,09,04,26.40
2009,07,30,09,05,26.30
2009,07,30,09,06,26.20
2009,07,30,09,07,26.20
2009,07,30,09,08,26.10
2009,07,30,09,09,26.10
2009,07,30,09,10,26.10
2009,07,30,09,11,26.10
2009,07,30,09,12,26.20
2009,07,30,09,13,26.20
2009,07,30,09,14,26.30
2009,07,30,09,15,26.40
2009,07,30,09,16,26.50
2009,07,30,09,17,26.50
2009,07,30,09,18,26.60
2009,07,30,09,19,26.50
2009,07,30,09,20,26.50
2009,07,30,09,21,26.50
2009,07,30,09,22,26.60
2009,07,30,09,23,26.70
2009,07,30,09,24,26.80
2009,07,30,09,25,26.80
2009,07,30,09,26,26.80
2009,07,30,09,27,26.90
2009,07,30,09,28,27.00
2009,07,30,09,29,27.20
2009,07,30,09,30,27.30
2009,07,30,09,31,27.50
2009,07,30,09,32,27.50
2009,07,30,09,33,27.60
2009,07,30,09,34,27.70
2009,07,30,09,35,27.70
2009,07,30,09,36,27.60
2009,07,30,09,37,27.60
2009,07,30,09,38,27.70
2009,07,30,09,39,27.70
2009,07,30,09,40,27.80
2009,07,30,09,41,27.80
2009,07,30,09,42,27.90
2009,07,30,09,43,27.80
2009,07,30,09,44,27.80
2009,07,30,09,45,27.70
2009,07,30,09,46,27.80
2009,07,30,09,47,27.80
2009,07,30,09,48,27.90
2009,07,30,09,49,28.10
2009,07,30,09,50,28.20
2009,07,30,09,51,28.20
2009,07,30,09,52,28.30
2009,07,30,09,53,28.40
2009,07,30,09,54,28.50
2009,07,30,09,55,28.60
2009,07,30,09,56,28.60
2009,07,30,09,57,28.70
2009,07,30,09,58,28.70
2009,07,30,09,59,28.70
2009,07,30,10,00,28.60
2009,07,30,10,01,28.50
2009,07,30,10,02,28.40
2009,07,30,10,03,28.40
2009,07,30,10,04,28.30
2009,07,30,10,05,28.20
2009,07,30,10,06,28.20
2009,07,30,10,07,28.20
2009,07,30,10,08,28.20
2009,07,30,10,09,28.20
2009,07,30,10,10,28.20
2009,07,30,10,11,28.30
2009,07,30,10,12,28.20
2009,07,30,10,13,28.10
2009,07,30,10,14,28.00
2009,07,30,10,15,27.90
2009,07,30,10,16,27.90
2009,07,30,10,17,27.80
2009,07,30,10,18,27.90
2009,07,30,10,19,28.00
2009,07,30,10,20,28.20
2009,07,30,10,21,28.20
2009,07,30,10,22,28.30
2009,07,30,10,23,28.30
2009,07,30,10,24,28.50
2009,07,30,10,25,28.50
2009,07,30,10,26,28.60
2009,07,30,10,27,28.70
2009,07,30,10,28,28.70
2009,07,30,10,29,28.80
2009,07,30,10,30,28.80
2009,07,30,10,31,28.80
2009,07,30,10,32,28.80
2009,07,30,10,33,28.90
2009,07,30,10,34,28.90
2009,07,30,10,35,28.90
2009,07,30,10,36,28.90
2009,07,30,10,37,29.00
2009,07,30,10,38,29.10
2009,07,30,10,39,29.10
2009,07,30,10,40,29.20
2009,07,30,10,41,29.30
2009,07,30,10,42,29.50
2009,07,30,10,43,29.50
2009,07,30,10,44,29.60
2009,07,30,10,45,29.60
2009,07,30,10,46,29.50
2009,07,30,10,47,29.30
2009,07,30,10,48,29.00
2009,07,30,10,49,28.80
2009,07,30,10,50,28.60
2009,07,30,10,51,28.50
2009,07,30,10,52,28.50
2009,07,30,10,53,28.40
2009,07,30,10,54,28.30
2009,07,30,10,55,28.30
2009,07,30,10,56,28.40
2009,07,30,10,57,28.40
2009,07,30,10,58,28.50
2009,07,30,10,59,28.70
2009,07,30,11,00,28.80
2009,07,30,11,01,28.80
2009,07,30,11,02,28.80
2009,07,30,11,03,28.90
2009,07,30,11,04,29.00
2009,07,30,11,05,29.00
2009,07,30,11,06,29.20
2009,07,30,11,07,29.30
2009,07,30,11,08,29.50
2009,07,30,11,09,29.70
2009,07,30,11,10,29.80
2009,07,30,11,11,29.90
2009,07,30,11,12,29.80
2009,07,30,11,13,29.60
2009,07,30,11,14,29.50
2009,07,30,11,15,29.50
2009,07,30,11,16,29.50
2009,07,30,11,17,29.50
2009,07,30,11,18,29.50
2009,07,30,11,19,29.50
2009,07,30,11,20,29.40
2009,07,30,11,21,29.40
2009,07,30,11,22,29.40
2009,07,30,11,23,29.40
2009,07,30,11,24,29.40
2009,07,30,11,25,29.50
2009,07,30,11,26,29.50
2009,07,30,11,27,29.50
2009,07,30,11,28,29.60
2009,07,30,11,29,29.80
2009,07,30,11,30,29.90
2009,07,30,11,31,29.90
2009,07,30,11,32,29.90
2009,07,30,11,33,29.80
2009,07,30,11,34,29.80
2009,07,30,11,35,29.80
2009,07,30,11,36,29.80
2009,07,30,11,37,29.90
2009,07,30,11,38,29.90
2009,07,30,11,39,29.80
2009,07,30,11,40,29.80
2009,07,30,11,41,29.90
2009,07,30,11,42,30.00
2009,07,30,11,43,30.10
2009,07,30,11,44,30.20
2009,07,30,11,45,30.20
2009,07,30,11,46,30.20
2009,07,30,11,47,30.20
2009,07,30,11,48,30.30
2009,07,30,11,49,30.30
2009,07,30,11,50,30.40
2009,07,30,11,51,30.40
2009,07,30,11,52,30.40
2009,07,30,11,53,30.30
2009,07,30,11,54,30.30
2009,07,30,11,55,30.20
2009,07,30,11,56,30.10
2009,07,30,11,57,30.20
2009,07,30,11,58,30.10
2009,07,30,11,59,30.00
2009,07,30,12,00,29.90
2009,07,30,12,01,29.90
2009,07,30,12,02,29.90
2009,07,30,12,03,29.90
2009,07,30,12,04,30.00
2009,07,30,12,05,30.10
2009,07,30,12,06,30.10
2009,07,30,12,07,30.20
2009,07,30,12,08,30.30
2009,07,30,12,09,30.40
2009,07,30,12,10,30.50
2009,07,30,12,11,30.60
2009,07,30,12,12,30.60
2009,07,30,12,13,30.50
2009,07,30,12,14,30.50
2009,07,30,12,15,30.50
2009,07,30,12,16,30.60
2009,07,30,12,17,30.60
2009,07,30,12,18,30.70
2009,07,30,12,19,30.70
2009,07,30,12,20,30.60
2009,07,30,12,21,30.60
2009,07,30,12,22,30.60
2009,07,30,12,23,30.70
2009,07,30,12,24,30.80
2009,07,30,12,25,30.80
2009,07,30,12,26,30.80
2009,07,30,12,27,30.80
2009,07,30,12,28,30.80
2009,07,30,12,29,30.90
2009,07,30,12,30,30.90
2009,07,30,12,31,31.00
2009,07,30,12,32,31.10
2009,07,30,12,33,31.20
2009,07,30,12,34,31.20
2009,07,30,12,35,31.30
2009,07,30,12,36,31.30
2009,07,30,12,37,31.30
2009,07,30,12,38,31.40
2009,07,30,12,39,31.30
2009,07,30,12,40,31.30
2009,07,30,12,41,31.30
2009,07,30,12,42,31.20
2009,07,30,12,43,31.20
2009,07,30,12,44,31.20
2009,07,30,12,45,31.20
2009,07,30,12,46,31.20
2009,07,30,12,47,31.20
2009,07,30,12,48,31.10
2009,07,30,12,49,31.00
2009,07,30,12,50,30.90
2009,07,30,12,51,31.00
2009,07,30,12,52,31.10
2009,07,30,12,53,31.20
2009,07,30,12,54,31.30
2009,07,30,12,55,31.30
2009,07,30,12,56,31.30
2009,07,30,12,57,31.30
2009,07,30,12,58,31.20
2009,07,30,12,59,31.10
2009,07,30,13,00,31.10
2009,07,30,13,01,31.20
2009,07,30,13,02,31.20
2009,07,30,13,03,31.10
2009,07,30,13,04,31.10
2009,07,30,13,05,31.00
2009,07,30,13,06,31.00
2009,07,30,13,07,31.00
2009,07,30,13,08,30.90
2009,07,30,13,09,30.80
2009,07,30,13,10,30.80
2009,07,30,13,11,30.90
2009,07,30,13,12,30.90
2009,07,30,13,13,31.00
2009,07,30,13,14,30.90
2009,07,30,13,15,30.80
2009,07,30,13,16,30.70
2009,07,30,13,17,30.70
2009,07,30,13,18,30.70
2009,07,30,13,19,30.70
2009,07,30,13,20,30.70
2009,07,30,13,21,30.60
2009,07,30,13,22,30.60
2009,07,30,13,23,30.60
2009,07,30,13,24,30.60
2009,07,30,13,25,30.60
2009,07,30,13,26,30.60
2009,07,30,13,27,30.60
2009,07,30,13,28,30.60
2009,07,30,13,29,30.50
2009,07,30,13,30,30.40
2009,07,30,13,31,30.40
2009,07,30,13,32,30.30
2009,07,30,13,33,30.30
2009,07,30,13,34,30.30
2009,07,30,13,35,30.30
2009,07,30,13,36,30.20
2009,07,30,13,37,30.20
2009,07,30,13,38,30.30
2009,07,30,13,39,30.40
2009,07,30,13,40,30.50
2009,07,30,13,41,30.60
2009,07,30,13,42,30.80
2009,07,30,13,43,30.90
2009,07,30,13,44,30.80
2009,07,30,13,45,30.90
2009,07,30,13,46,30.80
2009,07,30,13,47,30.70
2009,07,30,13,48,30.60
2009,07,30,13,49,30.60
2009,07,30,13,50,30.60
2009,07,30,13,51,30.60
2009,07,30,13,52,30.50
2009,07,30,13,53,30.40
2009,07,30,13,54,30.20
2009,07,30,13,55,30.20
2009,07,30,13,56,30.30
2009,07,30,13,57,30.40
2009,07,30,13,58,30.40
2009,07,30,13,59,30.30
2009,07,30,14,00,30.20
2009,07,30,14,01,30.20
2009,07,30,14,02,30.20
2009,07,30,14,03,30.10
2009,07,30,14,04,30.10
2009,07,30,14,05,30.20
2009,07,30,14,06,30.20
2009,07,30,14,07,30.20
2009,07,30,14,08,30.20
2009,07,30,14,09,30.30
2009,07,30,14,10,30.60
2009,07,30,14,11,30.70
2009,07,30,14,12,30.70
2009,07,30,14,13,30.80
2009,07,30,14,14,30.80
2009,07,30,14,15,30.80
2009,07,30,14,16,30.80
2009,07,30,14,17,30.80
2009,07,30,14,18,30.80
2009,07,30,14,19,30.70
2009,07,30,14,20,30.80
2009,07,30,14,21,30.80
2009,07,30,14,22,31.00
2009,07,30,14,23,31.10
2009,07,30,14,24,31.20
2009,07,30,14,25,31.20
2009,07,30,14,26,31.30
2009,07,30,14,27,31.30
2009,07,30,14,28,31.30
2009,07,30,14,29,31.20
2009,07,30,14,30,31.20
2009,07,30,14,31,31.30
2009,07,30,14,32,31.30
2009,07,30,14,33,31.30
2009,07,30,14,34,31.30
2009,07,30,14,35,31.30
2009,07,30,14,36,31.30
2009,07,30,14,37,31.20
2009,07,30,14,38,31.20
2009,07,30,14,39,31.10
2009,07,30,14,40,31.00
2009,07,30,14,41,30.80
2009,07,30,14,42,30.60
2009,07,30,14,43,30.60
2009,07,30,14,44,30.70
2009,07,30,14,45,30.80
2009,07,30,14,46,30.80
2009,07,30,14,47,30.80
2009,07,30,14,48,30.80
2009,07,30,14,49,30.80
2009,07,30,14,50,30.80
2009,07,30,14,51,30.80
2009,07,30,14,52,30.80
2009,07,30,14,53,30.70
2009,07,30,14,54,30.80
2009,07,30,14,55,30.80
2009,07,30,14,56,30.80
2009,07,30,14,57,30.80
2009,07,30,14,58,30.80
2009,07,30,14,59,30.80
2009,07,30,15,00,30.90
2009,07,30,15,01,31.00
2009,07,30,15,02,31.10
2009,07,30,15,03,31.20
2009,07,30,15,04,31.00
2009,07,30,15,05,31.00
2009,07,30,15,06,31.10
2009,07,30,15,07,31.10
2009,07,30,15,08,31.20
2009,07,30,15,09,31.20
2009,07,30,15,10,31.30
2009,07,30,15,11,31.40
2009,07,30,15,12,31.50
2009,07,30,15,13,31.50
2009,07,30,15,14,31.60
2009,07,30,15,15,31.60
2009,07,30,15,16,31.60
2009,07,30,15,17,31.60
2009,07,30,15,18,31.50
2009,07,30,15,19,31.30
2009,07,30,15,20,31.10
2009,07,30,15,21,30.90
2009,07,30,15,22,30.80
2009,07,30,15,23,30.80
2009,07,30,15,24,30.80
2009,07,30,15,25,30.70
2009,07,30,15,26,30.60
2009,07,30,15,27,30.60
2009,07,30,15,28,30.50
2009,07,30,15,29,30.50
2009,07,30,15,30,30.40
2009,07,30,15,31,30.30
2009,07,30,15,32,30.20
2009,07,30,15,33,30.10
2009,07,30,15,34,30.00
2009,07,30,15,35,29.90
2009,07,30,15,36,29.80
2009,07,30,15,37,29.80
2009,07,30,15,38,29.80
2009,07,30,15,39,29.80
2009,07,30,15,40,29.80
2009,07,30,15,41,29.90
2009,07,30,15,42,29.90
2009,07,30,15,43,30.00
2009,07,30,15,44,30.20
2009,07,30,15,45,30.40
2009,07,30,15,46,30.50
2009,07,30,15,47,30.60
2009,07,30,15,48,30.60
2009,07,30,15,49,30.70
2009,07,30,15,50,30.80
2009,07,30,15,51,30.90
2009,07,30,15,52,30.90
2009,07,30,15,53,30.90
2009,07,30,15,54,30.80
2009,07,30,15,55,30.90
2009,07,30,15,56,30.80
2009,07,30,15,57,30.90
2009,07,30,15,58,30.90
2009,07,30,15,59,30.90
2009,07,30,16,00,31.00
2009,07,30,16,01,31.10
2009,07,30,16,02,31.20
2009,07,30,16,03,31.30
2009,07,30,16,04,31.30
2009,07,30,16,05,31.30
2009,07,30,16,06,31.30
2009,07,30,16,07,31.30
2009,07,30,16,08,31.20
2009,07,30,16,09,31.10
2009,07,30,16,10,31.20
2009,07,30,16,11,31.20
2009,07,30,16,12,31.20
2009,07,30,16,13,31.20
2009,07,30,16,14,31.20
2009,07,30,16,15,31.20
2009,07,30,16,16,31.10
2009,07,30,16,17,31.00
2009,07,30,16,18,31.00
2009,07,30,16,19,30.90
2009,07,30,16,20,30.90
2009,07,30,16,21,31.00
2009,07,30,16,22,31.10
2009,07,30,16,23,31.20
2009,07,30,16,24,31.30
2009,07,30,16,25,31.40
2009,07,30,16,26,31.60
2009,07,30,16,27,31.70
2009,07,30,16,28,31.80
2009,07,30,16,29,31.90
2009,07,30,16,30,31.90
2009,07,30,16,31,31.80
2009,07,30,16,32,31.70
2009,07,30,16,33,31.70
2009,07,30,16,34,31.60
2009,07,30,16,35,31.50
2009,07,30,16,36,31.50
2009,07,30,16,37,31.50
2009,07,30,16,38,31.50
2009,07,30,16,39,31.60
2009,07,30,16,40,31.60
2009,07,30,16,41,31.40
2009,07,30,16,42,31.40
2009,07,30,16,43,31.30
2009,07,30,16,44,31.40
2009,07,30,16,45,31.40
2009,07,30,16,46,31.40
2009,07,30,16,47,31.50
2009,07,30,16,48,31.60
2009,07,30,16,49,31.60
2009,07,30,16,50,31.60
2009,07,30,16,51,31.60
2009,07,30,16,52,31.60
2009,07,30,16,53,31.60
2009,07,30,16,54,31.60
2009,07,30,16,55,31.50
2009,07,30,16,56,31.50
2009,07,30,16,57,31.50
2009,07,30,16,58,31.40
2009,07,30,16,59,31.40
2009,07,30,17,00,31.50
2009,07,30,17,01,31.50
2009,07,30,17,02,31.50
2009,07,30,17,03,31.60
2009,07,30,17,04,31.60
2009,07,30,17,05,31.60
2009,07,30,17,06,31.70
2009,07,30,17,07,31.60
2009,07,30,17,08,31.60
2009,07,30,17,09,31.60
2009,07,30,17,10,31.50
2009,07,30,17,11,31.50
2009,07,30,17,12,31.50
2009,07,30,17,13,31.50
2009,07,30,17,14,31.40
2009,07,30,17,15,31.40
2009,07,30,17,16,31.40
2009,07,30,17,17,31.40
2009,07,30,17,18,31.40
2009,07,30,17,19,31.40